Tracking 35237 objects as of 6-Sep-2026
HD Live streaming from Space Station
objects crossing your sky now

COSMOS 1372 DEB (ANTENNA


COSMOS 1372 DEB (ANTENNA is no longer on orbit


NORAD ID: 13412
Int'l Code: 1982-052C
Launch date: June 1, 1982
Source: Commonwealth of Independent States (former USSR) (CIS)
Launch site: TYURATAM MISSILE AND SPACE COMPLEX (TTMTR)
Decay date: 1982-08-13

Note: This is SATELLITE DEBRIS
Your satellite tracking list
Your tracking list is empty




NASA's NSSDC Master Catalog

Two Line Element Set (TLE):
1 13412U 82052  C 82224.35383863  .04653646 +84252-5 +26115-2 0  9992
2 13412 064.9889 230.8835 0017381 286.9074 074.3532 16.18528212011532
Source of the keplerian elements: AFSPC